Time,TemperatureF,DewpointF,PressureIn,WindDirection,WindDirectionDegrees,WindSpeedMPH,WindSpeedGustMPH,Humidity,HourlyPrecipIn,Conditions,Clouds,dailyrainin,SoftwareType,DateUTC
2013-08-27 00:00:00,59.9,57.6,29.94,SE,126,0.0,0.0,92,0.00,,,0.11,Wunderground v.1.15,2013-08-27 07:00:00,
2013-08-27 00:05:00,59.8,57.5,29.94,SE,126,0.0,0.0,92,0.00,,,0.11,Wunderground v.1.15,2013-08-27 07:05:00,
2013-08-27 00:10:00,59.8,57.5,29.94,SE,126,0.0,0.0,92,0.00,,,0.00,Wunderground v.1.15,2013-08-27 07:10:00,
2013-08-27 00:15:00,59.9,57.9,29.94,SE,126,0.0,0.0,93,0.00,,,0.00,Wunderground v.1.15,2013-08-27 07:15:00,
2013-08-27 00:20:00,60.0,58.0,29.95,SE,129,1.0,1.0,93,0.00,,,0.00,Wunderground v.1.15,2013-08-27 07:20:00,
2013-08-27 00:25:00,60.0,57.7,29.95,SE,129,1.0,1.0,92,0.00,,,0.00,Wunderground v.1.15,2013-08-27 07:25:00,
2013-08-27 00:30:00,60.0,57.7,29.95,SE,129,0.0,0.0,92,0.00,,,0.00,Wunderground v.1.15,2013-08-27 07:30:00,
2013-08-27 00:35:00,59.9,57.6,29.95,SE,127,1.0,1.0,92,0.00,,,0.00,Wunderground v.1.15,2013-08-27 07:35:00,
2013-08-27 00:40:00,59.9,57.9,29.94,SE,127,1.0,1.0,93,0.00,,,0.00,Wunderground v.1.15,2013-08-27 07:40:00,
2013-08-27 00:45:00,59.8,57.8,29.95,SE,127,0.0,1.0,93,0.00,,,0.00,Wunderground v.1.15,2013-08-27 07:45:00,
2013-08-27 00:50:00,60.0,58.0,29.94,SE,127,1.0,1.0,93,0.00,,,0.00,Wunderground v.1.15,2013-08-27 07:50:00,
2013-08-27 00:55:00,60.0,58.0,29.95,SE,127,1.0,3.0,93,0.00,,,0.00,Wunderground v.1.15,2013-08-27 07:55:00,
2013-08-27 01:00:00,60.0,58.0,29.95,SE,126,1.0,2.0,93,0.00,,,0.00,Wunderground v.1.15,2013-08-27 08:00:00,
2013-08-27 01:05:00,60.2,58.2,29.94,SE,126,1.0,2.0,93,0.00,,,0.00,Wunderground v.1.15,2013-08-27 08:05:00,
2013-08-27 01:10:00,60.1,58.1,29.94,SE,126,1.0,1.0,93,0.00,,,0.00,Wunderground v.1.15,2013-08-27 08:10:00,
2013-08-27 01:15:00,60.2,58.2,29.95,SE,126,1.0,1.0,93,0.00,,,0.00,Wunderground v.1.15,2013-08-27 08:15:00,
2013-08-27 01:25:00,60.0,58.0,29.94,SE,126,0.0,1.0,93,0.00,,,0.00,Wunderground v.1.15,2013-08-27 08:25:00,
2013-08-27 01:30:00,59.9,57.9,29.94,SE,126,1.0,1.0,93,0.00,,,0.00,Wunderground v.1.15,2013-08-27 08:30:00,
2013-08-27 01:35:00,59.8,57.8,29.94,SE,140,1.0,1.0,93,0.00,,,0.00,Wunderground v.1.15,2013-08-27 08:35:00,
2013-08-27 01:40:00,60.1,58.4,29.94,SE,136,1.0,4.0,94,0.00,,,0.00,Wunderground v.1.15,2013-08-27 08:40:00,
2013-08-27 01:45:00,60.5,58.5,29.94,SE,131,2.0,4.0,93,0.00,,,0.00,Wunderground v.1.15,2013-08-27 08:45:00,
2013-08-27 01:50:00,60.7,58.4,29.93,SE,130,4.0,4.0,92,0.00,,,0.00,Wunderground v.1.15,2013-08-27 08:50:00,
2013-08-27 01:55:00,60.7,58.4,29.94,SE,140,5.0,7.0,92,0.00,,,0.00,Wunderground v.1.15,2013-08-27 08:55:00,
2013-08-27 02:00:00,60.8,58.5,29.94,SE,130,6.0,6.0,92,0.00,,,0.00,Wunderground v.1.15,2013-08-27 09:00:00,
2013-08-27 02:05:00,60.7,58.4,29.93,SE,132,4.0,6.0,92,0.00,,,0.00,Wunderground v.1.15,2013-08-27 09:05:00,
2013-08-27 02:10:00,60.6,58.3,29.93,SE,132,2.0,2.0,92,0.00,,,0.00,Wunderground v.1.15,2013-08-27 09:10:00,
2013-08-27 02:15:00,60.4,58.1,29.93,SE,132,0.0,2.0,92,0.00,,,0.00,Wunderground v.1.15,2013-08-27 09:15:00,
2013-08-27 02:20:00,60.2,57.9,29.93,SE,132,0.0,0.0,92,0.00,,,0.00,Wunderground v.1.15,2013-08-27 09:20:00,
2013-08-27 02:25:00,60.0,57.7,29.93,SE,132,0.0,1.0,92,0.00,,,0.00,Wunderground v.1.15,2013-08-27 09:25:00,
2013-08-27 02:35:00,59.8,57.8,29.93,SE,132,0.0,0.0,93,0.00,,,0.00,Wunderground v.1.15,2013-08-27 09:35:00,
2013-08-27 02:40:00,59.7,57.7,29.92,SE,132,1.0,1.0,93,0.00,,,0.00,Wunderground v.1.15,2013-08-27 09:40:00,
2013-08-27 02:45:00,59.7,57.7,29.93,SE,132,0.0,1.0,93,0.00,,,0.00,Wunderground v.1.15,2013-08-27 09:45:00,
2013-08-27 02:50:00,59.8,57.8,29.93,SE,132,0.0,0.0,93,0.00,,,0.00,Wunderground v.1.15,2013-08-27 09:50:00,
2013-08-27 02:55:00,59.8,58.1,29.93,SE,132,0.0,0.0,94,0.00,,,0.00,Wunderground v.1.15,2013-08-27 09:55:00,
2013-08-27 03:00:00,60.3,58.9,29.93,SE,144,2.0,5.0,95,0.00,,,0.00,Wunderground v.1.15,2013-08-27 10:00:00,
2013-08-27 03:05:00,60.4,58.7,29.92,SE,143,2.0,5.0,94,0.00,,,0.00,Wunderground v.1.15,2013-08-27 10:05:00,
2013-08-27 03:10:00,60.3,58.6,29.93,SE,142,2.0,4.0,94,0.00,,,0.00,Wunderground v.1.15,2013-08-27 10:10:00,
2013-08-27 03:15:00,60.5,58.8,29.93,SE,141,2.0,4.0,94,0.00,,,0.00,Wunderground v.1.15,2013-08-27 10:15:00,
2013-08-27 03:20:00,60.3,58.3,29.93,ESE,123,2.0,2.0,93,0.00,,,0.00,Wunderground v.1.15,2013-08-27 10:20:00,
2013-08-27 03:25:00,60.2,58.2,29.92,ESE,117,1.0,2.0,93,0.00,,,0.00,Wunderground v.1.15,2013-08-27 10:25:00,
2013-08-27 03:30:00,60.1,58.4,29.92,ESE,117,0.0,1.0,94,0.00,,,0.00,Wunderground v.1.15,2013-08-27 10:30:00,
2013-08-27 03:35:00,60.1,58.4,29.92,ESE,117,0.0,1.0,94,0.00,,,0.00,Wunderground v.1.15,2013-08-27 10:35:00,
2013-08-27 03:40:00,60.1,58.4,29.92,ESE,117,1.0,1.0,94,0.00,,,0.00,Wunderground v.1.15,2013-08-27 10:40:00,
2013-08-27 03:45:00,60.2,58.5,29.92,SE,143,2.0,3.0,94,0.00,,,0.00,Wunderground v.1.15,2013-08-27 10:45:00,
2013-08-27 03:50:00,60.4,58.7,29.92,SE,132,3.0,4.0,94,0.00,,,0.00,Wunderground v.1.15,2013-08-27 10:50:00,
2013-08-27 03:55:00,60.5,58.8,29.92,SE,131,4.0,4.0,94,0.00,,,0.00,Wunderground v.1.15,2013-08-27 10:55:00,
2013-08-27 04:00:00,60.5,58.8,29.92,SE,131,3.0,3.0,94,0.00,,,0.00,Wunderground v.1.15,2013-08-27 11:00:00,
2013-08-27 04:05:00,60.7,59.0,29.92,SE,139,3.0,5.0,94,0.00,,,0.00,Wunderground v.1.15,2013-08-27 11:05:00,
2013-08-27 04:10:00,60.7,59.0,29.92,SSE,147,4.0,4.0,94,0.00,,,0.00,Wunderground v.1.15,2013-08-27 11:10:00,
2013-08-27 04:20:00,60.7,59.0,29.92,SE,138,4.0,4.0,94,0.00,,,0.00,Wunderground v.1.15,2013-08-27 11:20:00,
2013-08-27 04:25:00,60.6,58.9,29.92,SE,144,4.0,4.0,94,0.00,,,0.00,Wunderground v.1.15,2013-08-27 11:25:00,
2013-08-27 04:35:00,60.7,59.0,29.92,SE,136,3.0,5.0,94,0.00,,,0.00,Wunderground v.1.15,2013-08-27 11:35:00,
2013-08-27 04:40:00,60.6,58.9,29.92,SE,133,4.0,4.0,94,0.00,,,0.00,Wunderground v.1.15,2013-08-27 11:40:00,
2013-08-27 04:50:00,60.7,59.0,29.92,SE,130,3.0,3.0,94,0.00,,,0.00,Wunderground v.1.15,2013-08-27 11:50:00,
2013-08-27 04:55:00,60.6,58.9,29.92,SE,128,4.0,4.0,94,0.00,,,0.00,Wunderground v.1.15,2013-08-27 11:55:00,
2013-08-27 05:00:00,60.6,58.9,29.91,SE,134,3.0,5.0,94,0.00,,,0.00,Wunderground v.1.15,2013-08-27 12:00:00,
2013-08-27 05:05:00,60.5,58.8,29.91,SE,134,3.0,5.0,94,0.00,,,0.00,Wunderground v.1.15,2013-08-27 12:05:00,
2013-08-27 05:10:00,60.3,58.6,29.91,SE,134,1.0,1.0,94,0.00,,,0.00,Wunderground v.1.15,2013-08-27 12:10:00,
2013-08-27 05:15:00,60.3,58.6,29.91,SE,134,0.0,3.0,94,0.00,,,0.00,Wunderground v.1.15,2013-08-27 12:15:00,
2013-08-27 05:20:00,60.4,58.7,29.91,SE,134,1.0,2.0,94,0.00,,,0.00,Wunderground v.1.15,2013-08-27 12:20:00,
2013-08-27 05:25:00,60.4,58.7,29.91,SE,133,2.0,2.0,94,0.00,,,0.00,Wunderground v.1.15,2013-08-27 12:25:00,
2013-08-27 05:30:00,60.5,58.8,29.91,SE,131,2.0,2.0,94,0.00,,,0.00,Wunderground v.1.15,2013-08-27 12:30:00,
2013-08-27 05:35:00,60.5,58.8,29.91,SE,129,3.0,3.0,94,0.00,,,0.00,Wunderground v.1.15,2013-08-27 12:35:00,
2013-08-27 05:40:00,60.6,58.9,29.91,SE,129,3.0,3.0,94,0.00,,,0.00,Wunderground v.1.15,2013-08-27 12:40:00,
2013-08-27 05:45:00,60.5,58.8,29.91,SE,129,2.0,3.0,94,0.00,,,0.00,Wunderground v.1.15,2013-08-27 12:45:00,
2013-08-27 05:50:00,60.5,58.8,29.91,SE,129,1.0,1.0,94,0.00,,,0.00,Wunderground v.1.15,2013-08-27 12:50:00,
2013-08-27 05:55:00,60.5,58.8,29.91,SE,129,1.0,1.0,94,0.00,,,0.00,Wunderground v.1.15,2013-08-27 12:55:00,
2013-08-27 06:00:00,60.4,58.7,29.91,SE,129,1.0,3.0,94,0.00,,,0.00,Wunderground v.1.15,2013-08-27 13:00:00,
2013-08-27 06:05:00,60.3,58.6,29.91,SE,129,1.0,3.0,94,0.00,,,0.00,Wunderground v.1.15,2013-08-27 13:05:00,
2013-08-27 06:10:00,60.4,58.7,29.91,SE,129,1.0,2.0,94,0.00,,,0.00,Wunderground v.1.15,2013-08-27 13:10:00,
2013-08-27 06:15:00,60.4,58.7,29.91,SE,129,1.0,2.0,94,0.00,,,0.00,Wunderground v.1.15,2013-08-27 13:15:00,
2013-08-27 06:20:00,60.4,58.7,29.91,SE,130,1.0,1.0,94,0.00,,,0.00,Wunderground v.1.15,2013-08-27 13:20:00,
2013-08-27 06:25:00,60.5,58.8,29.91,SE,130,1.0,2.0,94,0.00,,,0.00,Wunderground v.1.15,2013-08-27 13:25:00,
2013-08-27 06:30:00,60.7,59.3,29.91,SE,132,2.0,3.0,95,0.00,,,0.00,Wunderground v.1.15,2013-08-27 13:30:00,
2013-08-27 06:35:00,60.8,59.1,29.91,SE,136,3.0,3.0,94,0.00,,,0.00,Wunderground v.1.15,2013-08-27 13:35:00,
2013-08-27 06:40:00,60.8,59.1,29.91,SE,134,3.0,3.0,94,0.00,,,0.00,Wunderground v.1.15,2013-08-27 13:40:00,
2013-08-27 06:45:00,61.1,59.4,29.91,SE,132,3.0,6.0,94,0.00,,,0.00,Wunderground v.1.15,2013-08-27 13:45:00,
2013-08-27 06:50:00,61.2,59.5,29.91,SE,128,5.0,6.0,94,0.00,,,0.00,Wunderground v.1.15,2013-08-27 13:50:00,
2013-08-27 07:00:00,61.4,59.7,29.92,SE,134,4.0,6.0,94,0.00,,,0.00,Wunderground v.1.15,2013-08-27 14:00:00,
2013-08-27 07:05:00,61.5,59.8,29.92,SE,130,4.0,6.0,94,0.00,,,0.00,Wunderground v.1.15,2013-08-27 14:05:00,
2013-08-27 07:15:00,61.2,59.5,29.92,SE,135,3.0,7.0,94,0.00,,,0.00,Wunderground v.1.15,2013-08-27 14:15:00,
2013-08-27 07:20:00,61.5,59.8,29.92,SE,138,3.0,4.0,94,0.00,,,0.00,Wunderground v.1.15,2013-08-27 14:20:00,
2013-08-27 07:25:00,61.6,59.6,29.92,SE,133,3.0,5.0,93,0.00,,,0.00,Wunderground v.1.15,2013-08-27 14:25:00,
2013-08-27 07:30:00,61.4,59.4,29.92,SE,133,4.0,4.0,93,0.00,,,0.00,Wunderground v.1.15,2013-08-27 14:30:00,
2013-08-27 07:35:00,61.5,59.5,29.92,SE,129,4.0,4.0,93,0.00,,,0.00,Wunderground v.1.15,2013-08-27 14:35:00,
2013-08-27 07:40:00,61.7,59.7,29.92,SE,142,4.0,7.0,93,0.00,,,0.00,Wunderground v.1.15,2013-08-27 14:40:00,
2013-08-27 07:45:00,61.6,59.6,29.92,SE,128,5.0,7.0,93,0.00,,,0.00,Wunderground v.1.15,2013-08-27 14:45:00,
2013-08-27 07:50:00,61.6,59.6,29.92,SE,132,5.0,5.0,93,0.00,,,0.00,Wunderground v.1.15,2013-08-27 14:50:00,
2013-08-27 07:55:00,61.5,59.5,29.92,SE,128,4.0,5.0,93,0.00,,,0.00,Wunderground v.1.15,2013-08-27 14:55:00,
2013-08-27 08:05:00,61.5,59.5,29.92,SE,130,3.0,4.0,93,0.00,,,0.00,Wunderground v.1.15,2013-08-27 15:05:00,
2013-08-27 08:10:00,61.6,59.6,29.92,ESE,115,2.0,2.0,93,0.00,,,0.00,Wunderground v.1.15,2013-08-27 15:10:00,
2013-08-27 08:15:00,61.8,59.8,29.92,ESE,121,2.0,2.0,93,0.00,,,0.00,Wunderground v.1.15,2013-08-27 15:15:00,
2013-08-27 08:20:00,61.9,59.9,29.92,SE,140,3.0,5.0,93,0.00,,,0.00,Wunderground v.1.15,2013-08-27 15:20:00,
2013-08-27 08:25:00,62.0,60.0,29.92,SE,134,3.0,5.0,93,0.00,,,0.00,Wunderground v.1.15,2013-08-27 15:25:00,
2013-08-27 08:30:00,62.1,60.1,29.92,SE,133,3.0,5.0,93,0.00,,,0.00,Wunderground v.1.15,2013-08-27 15:30:00,
2013-08-27 08:35:00,62.0,59.6,29.92,SE,128,2.0,5.0,92,0.00,,,0.00,Wunderground v.1.15,2013-08-27 15:35:00,
2013-08-27 08:40:00,62.2,60.2,29.92,SE,128,1.0,1.0,93,0.00,,,0.00,Wunderground v.1.15,2013-08-27 15:40:00,
2013-08-27 08:45:00,62.3,59.9,29.92,SE,130,1.0,1.0,92,0.00,,,0.00,Wunderground v.1.15,2013-08-27 15:45:00,
2013-08-27 08:50:00,62.3,59.9,29.92,SE,129,1.0,1.0,92,0.00,,,0.00,Wunderground v.1.15,2013-08-27 15:50:00,
2013-08-27 08:55:00,62.3,59.9,29.92,SE,129,1.0,3.0,92,0.00,,,0.00,Wunderground v.1.15,2013-08-27 15:55:00,
2013-08-27 09:00:00,62.4,60.0,29.92,SE,129,2.0,2.0,92,0.00,,,0.00,Wunderground v.1.15,2013-08-27 16:00:00,
2013-08-27 09:05:00,62.5,60.1,29.91,SE,129,2.0,2.0,92,0.00,,,0.00,Wunderground v.1.15,2013-08-27 16:05:00,
2013-08-27 09:10:00,62.6,59.9,29.91,SE,128,2.0,4.0,91,0.00,,,0.00,Wunderground v.1.15,2013-08-27 16:10:00,
2013-08-27 09:15:00,62.7,60.0,29.91,SE,130,2.0,4.0,91,0.00,,,0.00,Wunderground v.1.15,2013-08-27 16:15:00,
2013-08-27 09:20:00,62.9,59.9,29.91,SE,130,2.0,2.0,90,0.00,,,0.00,Wunderground v.1.15,2013-08-27 16:20:00,
2013-08-27 09:25:00,63.2,60.2,29.91,SE,139,2.0,2.0,90,0.00,,,0.00,Wunderground v.1.15,2013-08-27 16:25:00,
2013-08-27 09:30:00,63.5,60.2,29.91,SE,138,2.0,2.0,89,0.00,,,0.00,Wunderground v.1.15,2013-08-27 16:30:00,
2013-08-27 09:35:00,63.9,60.3,29.91,SE,136,2.0,5.0,88,0.00,,,0.00,Wunderground v.1.15,2013-08-27 16:35:00,
2013-08-27 09:40:00,64.0,60.1,29.91,SE,132,3.0,3.0,87,0.00,,,0.00,Wunderground v.1.15,2013-08-27 16:40:00,
2013-08-27 09:45:00,64.2,60.2,29.91,SE,131,3.0,3.0,87,0.00,,,0.00,Wunderground v.1.15,2013-08-27 16:45:00,
2013-08-27 09:50:00,64.2,60.2,29.91,ESE,119,2.0,4.0,87,0.00,,,0.00,Wunderground v.1.15,2013-08-27 16:50:00,
2013-08-27 09:55:00,64.1,60.2,29.91,SE,130,2.0,4.0,87,0.00,,,0.00,Wunderground v.1.15,2013-08-27 16:55:00,
2013-08-27 10:00:00,63.9,59.6,29.90,SE,129,3.0,3.0,86,0.00,,,0.00,Wunderground v.1.15,2013-08-27 17:00:00,
2013-08-27 10:05:00,64.1,60.2,29.90,SE,132,4.0,4.0,87,0.00,,,0.00,Wunderground v.1.15,2013-08-27 17:05:00,
2013-08-27 10:10:00,64.2,59.9,29.90,SE,132,4.0,4.0,86,0.00,,,0.00,Wunderground v.1.15,2013-08-27 17:10:00,
2013-08-27 10:20:00,64.3,60.0,29.90,SE,138,5.0,5.0,86,0.00,,,0.00,Wunderground v.1.15,2013-08-27 17:20:00,
2013-08-27 10:30:00,64.4,60.1,29.90,SE,129,5.0,5.0,86,0.00,,,0.00,Wunderground v.1.15,2013-08-27 17:30:00,
2013-08-27 10:35:00,64.5,59.9,29.89,SE,130,4.0,5.0,85,0.00,,,0.00,Wunderground v.1.15,2013-08-27 17:35:00,
2013-08-27 10:40:00,64.7,59.8,29.89,SE,132,4.0,4.0,84,0.00,,,0.00,Wunderground v.1.15,2013-08-27 17:40:00,
2013-08-27 10:45:00,65.1,60.1,29.89,SE,132,3.0,4.0,84,0.00,,,0.00,Wunderground v.1.15,2013-08-27 17:45:00,
2013-08-27 10:50:00,65.3,60.0,29.88,SE,138,3.0,3.0,83,0.00,,,0.00,Wunderground v.1.15,2013-08-27 17:50:00,
2013-08-27 10:55:00,65.4,60.4,29.88,SE,140,4.0,6.0,84,0.00,,,0.00,Wunderground v.1.15,2013-08-27 17:55:00,
2013-08-27 11:05:00,66.2,61.6,29.88,ESE,121,2.0,4.0,85,0.00,,,0.00,Wunderground v.1.15,2013-08-27 18:05:00,
2013-08-27 11:10:00,66.6,60.9,29.88,SE,130,2.0,3.0,82,0.00,,,0.00,Wunderground v.1.15,2013-08-27 18:10:00,
2013-08-27 11:15:00,66.5,60.8,29.88,SE,139,2.0,3.0,82,0.00,,,0.00,Wunderground v.1.15,2013-08-27 18:15:00,
2013-08-27 11:20:00,66.3,60.6,29.88,SE,132,3.0,3.0,82,0.00,,,0.00,Wunderground v.1.15,2013-08-27 18:20:00,
2013-08-27 11:25:00,66.3,60.6,29.88,SE,131,3.0,3.0,82,0.00,,,0.00,Wunderground v.1.15,2013-08-27 18:25:00,
2013-08-27 11:30:00,66.6,61.6,29.88,SE,131,2.0,2.0,84,0.00,,,0.00,Wunderground v.1.15,2013-08-27 18:30:00,
2013-08-27 11:35:00,66.8,61.5,29.88,SE,131,1.0,2.0,83,0.00,,,0.00,Wunderground v.1.15,2013-08-27 18:35:00,
2013-08-27 11:40:00,67.2,61.9,29.87,SE,134,1.0,2.0,83,0.00,,,0.00,Wunderground v.1.15,2013-08-27 18:40:00,
2013-08-27 11:45:00,67.4,61.4,29.87,SE,134,1.0,2.0,81,0.00,,,0.00,Wunderground v.1.15,2013-08-27 18:45:00,
2013-08-27 11:50:00,67.6,61.9,29.87,SE,134,1.0,1.0,82,0.00,,,0.00,Wunderground v.1.15,2013-08-27 18:50:00,
2013-08-27 11:55:00,67.8,61.8,29.87,SE,134,1.0,1.0,81,0.00,,,0.00,Wunderground v.1.15,2013-08-27 18:55:00,
2013-08-27 12:00:00,68.1,62.4,29.87,SE,134,1.0,1.0,82,0.00,,,0.00,Wunderground v.1.15,2013-08-27 19:00:00,
2013-08-27 12:05:00,68.0,61.6,29.86,SE,135,2.0,6.0,80,0.00,,,0.00,Wunderground v.1.15,2013-08-27 19:05:00,
2013-08-27 12:15:00,67.8,61.8,29.86,SE,134,3.0,6.0,81,0.00,,,0.00,Wunderground v.1.15,2013-08-27 19:15:00,
2013-08-27 12:20:00,67.6,61.6,29.86,SE,136,3.0,3.0,81,0.00,,,0.00,Wunderground v.1.15,2013-08-27 19:20:00,
2013-08-27 12:25:00,67.7,62.0,29.86,SE,139,4.0,4.0,82,0.00,,,0.00,Wunderground v.1.15,2013-08-27 19:25:00,
2013-08-27 12:30:00,67.9,62.2,29.86,SE,139,3.0,3.0,82,0.00,,,0.00,Wunderground v.1.15,2013-08-27 19:30:00,
2013-08-27 12:35:00,68.1,61.7,29.85,SE,139,2.0,3.0,80,0.00,,,0.00,Wunderground v.1.15,2013-08-27 19:35:00,
2013-08-27 12:40:00,68.5,62.4,29.85,SE,138,3.0,3.0,81,0.00,,,0.00,Wunderground v.1.15,2013-08-27 19:40:00,
2013-08-27 12:45:00,68.7,61.9,29.85,SE,135,3.0,3.0,79,0.00,,,0.00,Wunderground v.1.15,2013-08-27 19:45:00,
2013-08-27 12:50:00,69.2,62.4,29.85,SE,136,3.0,3.0,79,0.00,,,0.00,Wunderground v.1.15,2013-08-27 19:50:00,
2013-08-27 12:55:00,69.6,62.4,29.85,SE,134,2.0,3.0,78,0.00,,,0.00,Wunderground v.1.15,2013-08-27 19:55:00,
2013-08-27 13:00:00,70.0,62.5,29.84,SE,142,2.0,2.0,77,0.00,,,0.00,Wunderground v.1.15,2013-08-27 20:00:00,
2013-08-27 13:05:00,70.6,63.4,29.84,SE,142,2.0,3.0,78,0.00,,,0.00,Wunderground v.1.15,2013-08-27 20:05:00,
2013-08-27 13:10:00,70.8,63.2,29.84,SE,142,1.0,2.0,77,0.00,,,0.00,Wunderground v.1.15,2013-08-27 20:10:00,
2013-08-27 13:15:00,70.5,62.6,29.84,SE,142,2.0,3.0,76,0.00,,,0.00,Wunderground v.1.15,2013-08-27 20:15:00,
2013-08-27 13:20:00,70.3,62.4,29.84,SE,132,3.0,4.0,76,0.00,,,0.00,Wunderground v.1.15,2013-08-27 20:20:00,
2013-08-27 13:25:00,70.3,62.4,29.84,SE,134,4.0,5.0,76,0.00,,,0.00,Wunderground v.1.15,2013-08-27 20:25:00,
2013-08-27 13:30:00,70.2,62.3,29.84,SE,134,4.0,4.0,76,0.00,,,0.00,Wunderground v.1.15,2013-08-27 20:30:00,
2013-08-27 13:35:00,70.1,62.2,29.83,SE,136,4.0,4.0,76,0.00,,,0.00,Wunderground v.1.15,2013-08-27 20:35:00,
2013-08-27 13:40:00,69.9,62.0,29.83,SE,136,4.0,4.0,76,0.00,,,0.00,Wunderground v.1.15,2013-08-27 20:40:00,
2013-08-27 13:45:00,69.9,62.0,29.83,SE,136,4.0,4.0,76,0.00,,,0.00,Wunderground v.1.15,2013-08-27 20:45:00,
2013-08-27 13:50:00,69.9,62.4,29.83,SE,136,3.0,3.0,77,0.00,,,0.00,Wunderground v.1.15,2013-08-27 20:50:00,
2013-08-27 13:55:00,70.2,62.3,29.84,SE,136,4.0,4.0,76,0.00,,,0.00,Wunderground v.1.15,2013-08-27 20:55:00,
2013-08-27 14:00:00,70.5,62.2,29.84,South,176,4.0,6.0,75,0.00,,,0.00,Wunderground v.1.15,2013-08-27 21:00:00,
2013-08-27 14:10:00,70.4,62.1,29.84,South,177,4.0,4.0,75,0.00,,,0.00,Wunderground v.1.15,2013-08-27 21:10:00,
2013-08-27 14:15:00,70.5,62.2,29.84,South,177,3.0,4.0,75,0.00,,,0.00,Wunderground v.1.15,2013-08-27 21:15:00,
2013-08-27 14:20:00,70.6,62.7,29.83,South,177,2.0,2.0,76,0.00,,,0.00,Wunderground v.1.15,2013-08-27 21:20:00,
2013-08-27 14:25:00,70.8,62.5,29.83,South,177,1.0,2.0,75,0.00,,,0.00,Wunderground v.1.15,2013-08-27 21:25:00,
2013-08-27 14:30:00,70.9,62.6,29.83,SSW,192,1.0,3.0,75,0.00,,,0.00,Wunderground v.1.15,2013-08-27 21:30:00,
2013-08-27 14:40:00,70.3,63.1,29.83,WNW,284,4.0,6.0,78,0.00,,,0.00,Wunderground v.1.15,2013-08-27 21:40:00,
2013-08-27 14:45:00,70.2,63.4,29.83,West,272,4.0,6.0,79,0.00,,,0.00,Wunderground v.1.15,2013-08-27 21:45:00,
2013-08-27 14:50:00,70.0,62.8,29.82,West,273,5.0,5.0,78,0.00,,,0.00,Wunderground v.1.15,2013-08-27 21:50:00,
2013-08-27 14:55:00,70.2,63.4,29.82,West,278,5.0,5.0,79,0.00,,,0.00,Wunderground v.1.15,2013-08-27 21:55:00,
2013-08-27 15:05:00,70.5,62.9,29.82,West,267,4.0,5.0,77,0.00,,,0.00,Wunderground v.1.15,2013-08-27 22:05:00,
2013-08-27 15:10:00,70.9,63.0,29.82,WNW,292,4.0,4.0,76,0.00,,,0.00,Wunderground v.1.15,2013-08-27 22:10:00,
2013-08-27 15:15:00,71.1,62.8,29.82,WNW,290,4.0,4.0,75,0.00,,,0.00,Wunderground v.1.15,2013-08-27 22:15:00,
2013-08-27 15:20:00,71.3,63.0,29.82,West,273,4.0,6.0,75,0.00,,,0.00,Wunderground v.1.15,2013-08-27 22:20:00,
2013-08-27 15:25:00,71.3,62.6,29.82,WNW,288,5.0,6.0,74,0.00,,,0.00,Wunderground v.1.15,2013-08-27 22:25:00,
2013-08-27 15:30:00,71.5,63.2,29.82,WNW,285,6.0,6.0,75,0.00,,,0.00,Wunderground v.1.15,2013-08-27 22:30:00,
2013-08-27 15:35:00,71.6,62.9,29.82,NW,318,5.0,6.0,74,0.00,,,0.00,Wunderground v.1.15,2013-08-27 22:35:00,
2013-08-27 15:40:00,71.7,62.2,29.82,NW,324,5.0,5.0,72,0.00,,,0.00,Wunderground v.1.15,2013-08-27 22:40:00,
2013-08-27 15:45:00,71.7,62.6,29.81,NW,307,5.0,5.0,73,0.00,,,0.00,Wunderground v.1.15,2013-08-27 22:45:00,
2013-08-27 15:50:00,71.3,62.6,29.81,West,273,5.0,11.0,74,0.00,,,0.00,Wunderground v.1.15,2013-08-27 22:50:00,
2013-08-27 15:55:00,70.4,62.8,29.82,West,280,7.0,11.0,77,0.00,,,0.00,Wunderground v.1.15,2013-08-27 22:55:00,
2013-08-27 16:00:00,69.6,61.7,29.82,West,267,9.0,9.0,76,0.00,,,0.00,Wunderground v.1.15,2013-08-27 23:00:00,
2013-08-27 16:05:00,69.3,62.1,29.82,West,267,8.0,9.0,78,0.00,,,0.00,Wunderground v.1.15,2013-08-27 23:05:00,
2013-08-27 16:10:00,69.0,62.6,29.82,West,277,8.0,8.0,80,0.00,,,0.00,Wunderground v.1.15,2013-08-27 23:10:00,
2013-08-27 16:15:00,69.0,62.9,29.82,West,279,8.0,8.0,81,0.00,,,0.00,Wunderground v.1.15,2013-08-27 23:15:00,
2013-08-27 16:20:00,69.0,63.3,29.82,WSW,254,7.0,7.0,82,0.00,,,0.00,Wunderground v.1.15,2013-08-27 23:20:00,
2013-08-27 16:25:00,69.0,62.9,29.82,West,273,7.0,9.0,81,0.00,,,0.00,Wunderground v.1.15,2013-08-27 23:25:00,
2013-08-27 16:35:00,69.1,62.7,29.82,West,270,7.0,7.0,80,0.00,,,0.00,Wunderground v.1.15,2013-08-27 23:35:00,
2013-08-27 16:40:00,69.2,62.8,29.82,West,265,7.0,12.0,80,0.00,,,0.00,Wunderground v.1.15,2013-08-27 23:40:00,
2013-08-27 16:45:00,69.0,62.6,29.82,WNW,292,8.0,12.0,80,0.00,,,0.00,Wunderground v.1.15,2013-08-27 23:45:00,
2013-08-27 16:50:00,68.8,62.7,29.82,WNW,284,8.0,8.0,81,0.00,,,0.00,Wunderground v.1.15,2013-08-27 23:50:00,
2013-08-27 16:55:00,68.5,62.8,29.82,West,259,8.0,8.0,82,0.00,,,0.00,Wunderground v.1.15,2013-08-27 23:55:00,
2013-08-27 17:00:00,68.3,62.6,29.82,WNW,302,7.0,10.0,82,0.00,,,0.00,Wunderground v.1.15,2013-08-28 00:00:00,
2013-08-27 17:05:00,67.9,62.2,29.82,WNW,284,8.0,10.0,82,0.00,,,0.00,Wunderground v.1.15,2013-08-28 00:05:00,
2013-08-27 17:10:00,67.8,62.4,29.82,NW,307,7.0,7.0,83,0.00,,,0.00,Wunderground v.1.15,2013-08-28 00:10:00,
2013-08-27 17:15:00,67.7,62.3,29.82,NNW,329,4.0,7.0,83,0.00,,,0.00,Wunderground v.1.15,2013-08-28 00:15:00,
2013-08-27 17:20:00,67.5,62.2,29.82,NW,313,3.0,3.0,83,0.00,,,0.00,Wunderground v.1.15,2013-08-28 00:20:00,
2013-08-27 17:25:00,67.2,62.2,29.82,NW,324,3.0,3.0,84,0.00,,,0.00,Wunderground v.1.15,2013-08-28 00:25:00,
2013-08-27 17:35:00,66.9,61.6,29.83,North,355,3.0,3.0,83,0.00,,,0.00,Wunderground v.1.15,2013-08-28 00:35:00,
2013-08-27 17:40:00,66.7,61.4,29.83,NW,311,3.0,4.0,83,0.00,,,0.00,Wunderground v.1.15,2013-08-28 00:40:00,
2013-08-27 17:45:00,66.6,61.3,29.83,NNW,340,3.0,4.0,83,0.00,,,0.00,Wunderground v.1.15,2013-08-28 00:45:00,
2013-08-27 17:50:00,66.5,61.2,29.83,North,360,3.0,3.0,83,0.00,,,0.00,Wunderground v.1.15,2013-08-28 00:50:00,
2013-08-27 17:55:00,66.4,61.1,29.83,North,355,3.0,3.0,83,0.00,,,0.00,Wunderground v.1.15,2013-08-28 00:55:00,
2013-08-27 18:00:00,66.2,60.9,29.83,NNW,343,3.0,5.0,83,0.00,,,0.00,Wunderground v.1.15,2013-08-28 01:00:00,
2013-08-27 18:05:00,66.1,60.8,29.83,NW,324,3.0,5.0,83,0.00,,,0.00,Wunderground v.1.15,2013-08-28 01:05:00,
2013-08-27 18:10:00,65.9,60.6,29.83,NW,316,3.0,3.0,83,0.00,,,0.00,Wunderground v.1.15,2013-08-28 01:10:00,
2013-08-27 18:20:00,65.4,60.4,29.83,NW,309,4.0,4.0,84,0.00,,,0.00,Wunderground v.1.15,2013-08-28 01:20:00,
2013-08-27 18:25:00,65.2,60.2,29.83,NW,315,4.0,5.0,84,0.00,,,0.00,Wunderground v.1.15,2013-08-28 01:25:00,
2013-08-27 18:35:00,64.8,60.5,29.83,NE,42,2.0,4.0,86,0.00,,,0.00,Wunderground v.1.15,2013-08-28 01:35:00,
2013-08-27 18:40:00,64.5,60.5,29.83,NW,324,2.0,3.0,87,0.00,,,0.00,Wunderground v.1.15,2013-08-28 01:40:00,
2013-08-27 18:45:00,64.3,60.3,29.83,NW,325,2.0,3.0,87,0.00,,,0.00,Wunderground v.1.15,2013-08-28 01:45:00,
2013-08-27 18:50:00,64.2,60.6,29.83,NNW,331,3.0,4.0,88,0.00,,,0.00,Wunderground v.1.15,2013-08-28 01:50:00,
2013-08-27 18:55:00,64.0,60.4,29.83,NW,307,3.0,4.0,88,0.00,,,0.00,Wunderground v.1.15,2013-08-28 01:55:00,
2013-08-27 19:00:00,63.9,60.3,29.83,NW,314,3.0,6.0,88,0.00,,,0.00,Wunderground v.1.15,2013-08-28 02:00:00,
2013-08-27 19:05:00,63.7,60.1,29.83,WNW,303,3.0,6.0,88,0.00,,,0.01,Wunderground v.1.15,2013-08-28 02:05:00,
2013-08-27 19:10:00,63.6,60.0,29.83,WNW,302,3.0,3.0,88,0.00,,,0.01,Wunderground v.1.15,2013-08-28 02:10:00,
2013-08-27 19:15:00,63.4,60.1,29.83,NNW,330,3.0,3.0,89,0.00,,,0.01,Wunderground v.1.15,2013-08-28 02:15:00,
2013-08-27 19:20:00,63.3,60.0,29.83,NNW,336,3.0,3.0,89,0.00,,,0.01,Wunderground v.1.15,2013-08-28 02:20:00,
2013-08-27 19:25:00,63.2,59.9,29.83,NNE,16,2.0,3.0,89,0.00,,,0.01,Wunderground v.1.15,2013-08-28 02:25:00,
2013-08-27 19:30:00,63.2,60.2,29.83,North,355,1.0,1.0,90,0.00,,,0.01,Wunderground v.1.15,2013-08-28 02:30:00,
2013-08-27 19:35:00,63.1,60.1,29.83,North,355,1.0,1.0,90,0.00,,,0.01,Wunderground v.1.15,2013-08-28 02:35:00,
2013-08-27 19:45:00,62.8,60.1,29.83,NNW,329,1.0,2.0,91,0.00,,,0.01,Wunderground v.1.15,2013-08-28 02:45:00,
2013-08-27 19:50:00,62.7,60.0,29.83,NNW,329,1.0,1.0,91,0.00,,,0.01,Wunderground v.1.15,2013-08-28 02:50:00,
2013-08-27 19:55:00,62.7,60.0,29.84,NW,323,1.0,1.0,91,0.00,,,0.02,Wunderground v.1.15,2013-08-28 02:55:00,
2013-08-27 20:00:00,62.5,60.1,29.83,NW,323,1.0,1.0,92,0.00,,,0.02,Wunderground v.1.15,2013-08-28 03:00:00,
2013-08-27 20:05:00,62.4,60.0,29.83,NW,323,1.0,1.0,92,0.00,,,0.02,Wunderground v.1.15,2013-08-28 03:05:00,
2013-08-27 20:10:00,62.4,60.0,29.83,NW,323,1.0,1.0,92,0.00,,,0.02,Wunderground v.1.15,2013-08-28 03:10:00,
2013-08-27 20:15:00,62.3,59.9,29.83,NW,323,0.0,1.0,92,0.00,,,0.02,Wunderground v.1.15,2013-08-28 03:15:00,
2013-08-27 20:20:00,62.3,59.9,29.83,NW,323,1.0,1.0,92,0.00,,,0.02,Wunderground v.1.15,2013-08-28 03:20:00,
2013-08-27 20:25:00,62.2,60.2,29.83,NW,323,0.0,1.0,93,0.00,,,0.02,Wunderground v.1.15,2013-08-28 03:25:00,
2013-08-27 20:35:00,62.0,60.0,29.83,NW,323,0.0,0.0,93,0.00,,,0.02,Wunderground v.1.15,2013-08-28 03:35:00,
2013-08-27 20:40:00,62.1,60.1,29.83,NW,323,0.0,0.0,93,0.00,,,0.02,Wunderground v.1.15,2013-08-28 03:40:00,
2013-08-27 20:45:00,62.1,60.1,29.83,NW,310,0.0,1.0,93,0.00,,,0.02,Wunderground v.1.15,2013-08-28 03:45:00,
2013-08-27 20:50:00,62.3,60.2,29.83,WNW,292,2.0,4.0,93,0.00,,,0.02,Wunderground v.1.15,2013-08-28 03:50:00,
2013-08-27 20:55:00,62.3,60.2,29.83,WNW,292,2.0,4.0,93,0.00,,,0.02,Wunderground v.1.15,2013-08-28 03:55:00,
2013-08-27 21:05:00,62.2,60.2,29.83,WNW,292,1.0,1.0,93,0.00,,,0.02,Wunderground v.1.15,2013-08-28 04:05:00,
2013-08-27 21:10:00,62.2,60.2,29.83,WNW,292,1.0,1.0,93,0.00,,,0.02,Wunderground v.1.15,2013-08-28 04:10:00,
2013-08-27 21:15:00,62.2,60.2,29.83,WNW,292,1.0,1.0,93,0.00,,,0.02,Wunderground v.1.15,2013-08-28 04:15:00,
2013-08-27 21:20:00,62.2,60.2,29.83,WNW,294,1.0,1.0,93,0.00,,,0.02,Wunderground v.1.15,2013-08-28 04:20:00,
2013-08-27 21:25:00,62.3,60.2,29.83,WNW,294,1.0,2.0,93,0.00,,,0.02,Wunderground v.1.15,2013-08-28 04:25:00,
2013-08-27 21:30:00,62.6,60.8,29.83,WNW,288,2.0,2.0,94,0.00,,,0.02,Wunderground v.1.15,2013-08-28 04:30:00,
2013-08-27 21:35:00,62.5,60.4,29.83,WNW,286,3.0,4.0,93,0.00,,,0.02,Wunderground v.1.15,2013-08-28 04:35:00,
2013-08-27 21:40:00,62.7,60.6,29.83,WNW,286,3.0,3.0,93,0.00,,,0.02,Wunderground v.1.15,2013-08-28 04:40:00,
2013-08-27 21:45:00,62.8,60.7,29.83,WNW,285,3.0,3.0,93,0.00,,,0.02,Wunderground v.1.15,2013-08-28 04:45:00,
2013-08-27 21:50:00,62.6,60.2,29.83,NW,311,3.0,3.0,92,0.00,,,0.02,Wunderground v.1.15,2013-08-28 04:50:00,
2013-08-27 21:55:00,62.3,59.9,29.83,NW,306,2.0,3.0,92,0.00,,,0.02,Wunderground v.1.15,2013-08-28 04:55:00,
2013-08-27 22:00:00,62.3,59.9,29.83,NW,309,2.0,2.0,92,0.00,,,0.02,Wunderground v.1.15,2013-08-28 05:00:00,
2013-08-27 22:05:00,62.2,59.8,29.83,NW,309,1.0,2.0,92,0.00,,,0.02,Wunderground v.1.15,2013-08-28 05:05:00,
2013-08-27 22:10:00,62.1,59.7,29.84,NW,309,1.0,1.0,92,0.00,,,0.02,Wunderground v.1.15,2013-08-28 05:10:00,
2013-08-27 22:15:00,62.1,59.7,29.84,NW,309,0.0,1.0,92,0.00,,,0.02,Wunderground v.1.15,2013-08-28 05:15:00,
2013-08-27 22:20:00,62.0,59.6,29.83,NW,309,1.0,2.0,92,0.00,,,0.02,Wunderground v.1.15,2013-08-28 05:20:00,
2013-08-27 22:25:00,62.0,59.6,29.83,NW,309,1.0,2.0,92,0.00,,,0.02,Wunderground v.1.15,2013-08-28 05:25:00,
2013-08-27 22:30:00,61.9,59.5,29.83,NW,309,1.0,1.0,92,0.00,,,0.02,Wunderground v.1.15,2013-08-28 05:30:00,
2013-08-27 22:35:00,61.7,59.4,29.83,NW,309,0.0,1.0,92,0.00,,,0.02,Wunderground v.1.15,2013-08-28 05:35:00,
2013-08-27 22:40:00,61.5,59.5,29.83,NW,309,0.0,0.0,93,0.00,,,0.02,Wunderground v.1.15,2013-08-28 05:40:00,
2013-08-27 22:45:00,61.4,59.4,29.83,NW,309,0.0,0.0,93,0.00,,,0.02,Wunderground v.1.15,2013-08-28 05:45:00,
2013-08-27 22:50:00,61.4,59.4,29.83,NW,309,0.0,1.0,93,0.00,,,0.02,Wunderground v.1.15,2013-08-28 05:50:00,
2013-08-27 22:55:00,61.3,59.6,29.83,NW,309,0.0,1.0,94,0.00,,,0.02,Wunderground v.1.15,2013-08-28 05:55:00,
2013-08-27 23:05:00,61.3,59.6,29.83,NW,309,1.0,1.0,94,0.00,,,0.02,Wunderground v.1.15,2013-08-28 06:05:00,
2013-08-27 23:10:00,61.3,59.6,29.83,NW,309,1.0,1.0,94,0.00,,,0.02,Wunderground v.1.15,2013-08-28 06:10:00,
2013-08-27 23:15:00,61.3,59.6,29.83,NW,309,0.0,1.0,94,0.00,,,0.02,Wunderground v.1.15,2013-08-28 06:15:00,
2013-08-27 23:20:00,61.3,59.6,29.83,NW,309,0.0,1.0,94,0.00,,,0.02,Wunderground v.1.15,2013-08-28 06:20:00,
2013-08-27 23:25:00,61.4,59.7,29.83,NW,309,0.0,1.0,94,0.00,,,0.02,Wunderground v.1.15,2013-08-28 06:25:00,
2013-08-27 23:30:00,61.4,60.0,29.83,NW,309,0.0,0.0,95,0.00,,,0.02,Wunderground v.1.15,2013-08-28 06:30:00,
2013-08-27 23:35:00,61.4,60.0,29.83,NW,309,0.0,0.0,95,0.00,,,0.02,Wunderground v.1.15,2013-08-28 06:35:00,
2013-08-27 23:40:00,61.3,59.6,29.83,NW,309,0.0,0.0,94,0.00,,,0.02,Wunderground v.1.15,2013-08-28 06:40:00,
2013-08-27 23:45:00,61.3,59.6,29.83,NW,309,0.0,0.0,94,0.00,,,0.02,Wunderground v.1.15,2013-08-28 06:45:00,
2013-08-27 23:55:00,61.2,59.5,29.83,NW,309,0.0,0.0,94,0.00,,,0.02,Wunderground v.1.15,2013-08-28 06:55:00,